Location: Beekmeers
(50.8953°N, 3.6968°E)
Time: 10:20:43
(UTC+00:00)

MSX - Pass Details

Date: 23 May 2024
Orbit: 893 x 906 km, 99.0° (Epoch: 14 June)

Event Time Altitude Azimuth Distance (km) Brightness Sun altitude
Rises 02:02:37 0° 14° (NNE) 3,527 8.4 -12.1°
Reaches altitude 10° 02:05:02 10° 13° (NNE) 2,581 7.5 -11.8°
Maximum altitude 02:10:47 78° 289° (WNW) 919 3.9 -11.3°
Enters shadow 02:15:53 13° 204° (SSW) 2,326 5.4 -10.9°
